This demonstration page uses our WeatherBlox Daily Observations layout. Learn more.

Left ArrowRight Arrow

39.51506, -84.39828

Hourly Observations for September 9, 2021

Temp ( °F °C ) Dew Point ( °F °C ) Humidity (%) Winds ( mph kmh ) Pressure ( in mb ) Visibility ( mi km ) Precip ( " mm )
12:15 am 00:15 Clear 57 14 N/A N/A N N/A 29.87 1011 10 16 N/A
12:35 am 00:35 Clear 57 14 N/A N/A SW 3 6 29.87 1011 10 16 N/A
12:55 am 00:55 Clear 57 14 N/A N/A W 3 6 29.87 1011 10 16 N/A
1:15 am 01:15 Clear 55 13 N/A N/A N N/A 29.88 1012 10 16 N/A
1:35 am 01:35 Clear 55 13 N/A N/A N N/A 29.88 1012 10 16 N/A
1:55 am 01:55 Clear 55 13 N/A N/A N N/A 29.88 1012 10 16 N/A
2:15 am 02:15 Clear 55 13 N/A N/A N N/A 29.88 1012 10 16 N/A
2:35 am 02:35 Clear 55 13 N/A N/A N N/A 29.88 1012 10 16 N/A
2:55 am 02:55 Clear 55 13 N/A N/A N N/A 29.88 1012 10 16 N/A
3:15 am 03:15 Clear 55 13 N/A N/A N N/A 29.89 1012 10 16 N/A
3:35 am 03:35 Clear 54 12 N/A N/A N N/A 29.89 1012 10 16 N/A
3:55 am 03:55 Clear 54 12 N/A N/A N N/A 29.89 1012 10 16 N/A
4:15 am 04:15 Clear 54 12 N/A N/A N N/A 29.89 1012 10 16 N/A
4:35 am 04:35 Clear 54 12 N/A N/A N N/A 29.89 1012 10 16 N/A
4:55 am 04:55 Clear 54 12 N/A N/A NNE 7 11 29.90 1013 10 16 N/A
5:15 am 05:15 Clear 56 13.3 55 12.5 95 95 NNE 6 9 29.90 1013 10 16 N/A
5:35 am 05:35 Clear 55 12.7 55 12.5 99 99 NNE 5 7 29.91 1013 10 16 N/A
5:55 am 05:55 Clear 56 13.4 55 12.9 97 97 NNE 5 7 29.91 1013 10 16 N/A
6:15 am 06:15 Mostly Cloudy 56 13.6 56 13.2 97 97 NE 5 7 29.92 1013 10 16 N/A
6:35 am 06:35 Partly Cloudy 56 13.4 55 12.5 94 94 NNE 5 7 29.92 1013 10 16 N/A
6:55 am 06:55 Clear 54 12 54 12 100 100 NE 3 6 29.93 1014 10 16 N/A
7:15 am 07:15 Sunny 56 13.1 55 12.9 99 99 NE 6 9 29.94 1014 10 16 N/A
7:35 am 07:35 Sunny 56 13.3 55 12.7 96 96 NE 5 7 29.94 1014 10 16 N/A
7:55 am 07:55 Sunny 56 13.5 56 13.3 99 99 NE 5 7 29.95 1014 10 16 N/A
8:15 am 08:15 Sunny 58 14.7 57 13.8 94 94 NNE 3 6 29.96 1014 10 16 N/A
8:35 am 08:35 Sunny 60 15.7 58 14.3 91 91 NE 3 6 29.95 1014 10 16 N/A
8:55 am 08:55 Sunny 62 16.9 58 14.4 85 85 NNE 6 9 29.96 1015 10 16 N/A
9:15 am 09:15 Partly Cloudy 64 18 58 14.4 80 80 NNE 7 11 29.96 1015 10 16 N/A
9:35 am 09:35 Partly Cloudy 66 18.8 58 14.3 75 75 N 6 9 29.96 1014 10 16 N/A
9:55 am 09:55 Sunny 67 19.4 57 14.1 72 72 N 6 9 29.96 1014 10 16 N/A
10:15 am 10:15 Sunny 68 20 57 13.7 67 67 N 6 9 29.96 1015 10 16 N/A
10:35 am 10:35 Sunny 69 20.3 56 13.3 64 64 NNW 7 11 29.97 1015 10 16 N/A
10:55 am 10:55 Sunny 70 21 57 14 64 64 NNE 9 15 29.97 1015 10 16 N/A
11:15 am 11:15 Sunny 70 21.3 57 13.7 62 62 N 6 9 29.97 1015 10 16 N/A
11:35 am 11:35 Sunny 71 21.4 57 13.9 62 62 N 8 13 29.97 1015 10 16 N/A
11:55 am 11:55 Partly Cloudy 72 22.4 58 14.3 60 60 N 7 11 29.97 1015 10 16 N/A
12:15 pm 12:15 Mostly Cloudy 73 22.7 57 14.1 58 58 N 12 19 29.97 1015 10 16 N/A
12:35 pm 12:35 Mostly Cloudy 72 22.2 56 13.5 58 58 N 13 20 29.96 1015 10 16 N/A
12:55 pm 12:55 Partly Cloudy 72 22.3 56 13.6 58 58 WNW 10 17 29.96 1015 10 16 N/A
1:15 pm 13:15 Partly Cloudy 73 22.8 57 13.7 57 57 NW 6 9 29.96 1014 10 16 N/A
1:35 pm 13:35 Partly Cloudy 73 23 55 12.7 52 52 NW 10 17 29.96 1014 10 16 N/A
1:55 pm 13:55 Partly Cloudy 74 23.6 56 13.5 53 53 NW 8 13 29.96 1014 10 16 N/A
2:15 pm 14:15 Partly Cloudy 75 24 55 12.5 49 49 WNW 15 24 29.96 1014 10 16 N/A
2:35 pm 14:35 Mostly Cloudy 74 23.4 54 12.3 50 50 N 10 17 29.96 1014 10 16 N/A
2:55 pm 14:55 Partly Cloudy 74 23.6 54 12.4 50 50 WNW 8 13 29.96 1014 10 16 N/A
3:15 pm 15:15 Partly Cloudy 75 23.8 52 11.3 46 46 NNW 10 17 29.95 1014 10 16 N/A
3:35 pm 15:35 Partly Cloudy 75 24.1 52 11 44 44 NNW 13 20 29.95 1014 10 16 N/A
3:55 pm 15:55 Partly Cloudy 74 23.6 51 10.8 45 45 N 15 24 29.95 1014 10 16 N/A
4:15 pm 16:15 Mostly Cloudy 75 24.1 52 11.1 44 44 NNW 10 17 29.95 1014 10 16 N/A
4:35 pm 16:35 Partly Cloudy 75 23.9 51 10.3 42 42 NW 10 17 29.95 1014 10 16 N/A
4:55 pm 16:55 Mostly Cloudy 76 24.2 51 10.6 42 42 NW 9 15 29.95 1014 10 16 N/A
5:15 pm 17:15 Partly Cloudy 74 23.4 50 10 43 43 NNW 8 13 29.96 1014 10 16 N/A
5:35 pm 17:35 Partly Cloudy 75 24 50 10.1 42 42 WNW 10 17 29.96 1014 10 16 N/A
5:55 pm 17:55 Partly Cloudy 75 23.9 51 10.4 43 43 NW 10 17 29.95 1014 10 16 N/A
6:15 pm 18:15 Partly Cloudy 75 23.7 50 10.2 43 43 N 6 9 29.96 1014 10 16 N/A
6:35 pm 18:35 Partly Cloudy 74 23.1 52 11.2 47 47 NNW 7 11 29.96 1014 10 16 N/A
6:55 pm 18:55 Mostly Cloudy 73 22.8 52 11.3 48 48 NNW 7 11 29.96 1014 10 16 N/A
7:15 pm 19:15 Partly Cloudy 71 21.7 53 11.5 52 52 NNW 7 11 29.97 1015 10 16 N/A
7:35 pm 19:35 Sunny 70 20.9 54 12.1 57 57 NW 3 6 29.97 1015 10 16 N/A
7:55 pm 19:55 Sunny 66 18.9 57 14 73 73 NW 3 6 29.98 1015 10 16 N/A
8:15 pm 20:15 Mostly Cloudy 64 17.8 59 15 84 84 NNW 3 6 29.99 1016 10 16 N/A
8:35 pm 20:35 Mostly Cloudy 62 16.9 59 15.1 89 89 NW 3 6 29.99 1016 10 16 N/A
8:55 pm 20:55 Cloudy 62 16.6 60 15.7 94 94 NNW 3 6 30.00 1016 10 16 N/A
9:15 pm 21:15 Mostly Cloudy 62 16.6 60 15.6 94 94 N N/A 30.01 1016 10 16 N/A
9:35 pm 21:35 Partly Cloudy 62 16.9 59 15 89 89 N N/A 30.01 1016 10 16 N/A
9:55 pm 21:55 Partly Cloudy 61 15.9 59 15 94 94 ENE 3 6 30.02 1017 10 16 N/A
10:15 pm 22:15 Clear 61 16 59 14.8 93 93 N N/A 30.02 1017 10 16 N/A
10:35 pm 22:35 Clear 61 15.9 58 14.3 90 90 N N/A 30.03 1017 10 16 N/A
10:55 pm 22:55 Mostly Cloudy 59 15 57 14 94 94 N N/A 30.04 1017 10 16 N/A
11:15 pm 23:15 Cloudy 59 15.1 59 14.9 99 99 NNE 5 7 30.05 1017 10 16 N/A
11:35 pm 23:35 Partly Cloudy 60 15.4 59 15.1 98 98 NE 3 6 30.05 1017 10 16 N/A
11:55 pm 23:55 Clear 57 14 57 14 100 100 N N/A 30.06 1018 10 16 N/A

Powered by AerisWeather